sat.trackr.live / text

‹ back to catalog

STARLINK-30715

NORAD 57941 · 2023-148G

PAYLOAD ACTIVE UNKNOWN

§ Identity

Operator
Country
US
Launch date
2023-09-25
Launch site
AFWTR
Launch vehicle
Mass (kg)
RCS (m²)

Purposes: comms

External: N2YO · Heavens-Above · Gunter

§ Orbital elements

Epoch: 2026-09-20T06:42:28.521792Z

Period
93.85 min
Inclination
53.1601°
Eccentricity
0.0001211
Mean motion
15.34401529 rev/d
Perigee alt
461.9 km
Apogee alt
463.5 km
Semi-major
6,840.8 km
B*
5.7347e-5
RAAN
188.3899°
Arg perigee
92.0642°
Mean anomaly
268.0500°
Rev number
16,838

§ Raw data

STARLINK-307151 57941U 23148G   26263.27949678  .00001562  00000+0  57347-4 0  99982 57941  53.1601 188.3899 0001211  92.0642 268.0500 15.34401529168389

JSON: /api/v1/satellites/57941 · /tle

For live sub-satellite position, see the globe view (requires WebGL).

§ Visibility from observer

Set your observer location to see the next 7 days of passes ≥ 10°. The values pass through the URL so the page stays shareable.

No JS? Fill the form by hand. The geolocation button needs JavaScript.